Location: Newark
(11.2914°S, 14.4718°E)
Time: 19:26:23
(UTC+00:00)

Vanguard 2 - Pass Details

Date: 26 September 2019
Orbit: 554 x 2937 km, 32.9° (Epoch: 22 October)

Event Time Altitude Azimuth Distance (km) Brightness Sun altitude
Rises 22:14:04 0° 263° (W) 6,239 12.3 -74.0°
Reaches altitude 10° 22:18:59 10° 274° (W) 5,474 11.9 -74.7°
Enters shadow 22:19:37 11° 276° (W) 5,388 11.8 -74.8°
